This is the latest recevied weather packets stored in our database for station/object W8XLR-2. If no packets are shown the sender has not sent any weather packets the latest 10 day(s).
| Time | Temp. | Humidity | Pressure | Rain* | Wind** | Luminosity | Snow |
|---|---|---|---|---|---|---|---|
| 1777847209 | 14.44° C | 44% | 1015.7 hPa | 0 mm | - | - | - |
| 1777846609 | 14.44° C | 44% | 1015.7 hPa | 0 mm | - | - | - |
| 1777846009 | 14.44° C | 45% | 1015.7 hPa | 0 mm | - | - | - |
| 1777845444 | 14.44° C | 43% | 1015.6 hPa | 0 mm | - | - | - |
| 1777845408 | 14.44° C | 43% | 1015.6 hPa | 0 mm | - | - | - |
| 1777844815 | 14.44° C | 43% | 1015.6 hPa | 0 mm | - | - | - |
| 1777844209 | 15° C | 43% | 1015.5 hPa | 0 mm | - | - | - |
| 1777843609 | 16.11° C | 40% | 1015.5 hPa | 0 mm | - | - | - |
| 1777843046 | 16.11° C | 40% | 1015.5 hPa | 0 mm | - | - | - |
| 1777843007 | 16.11° C | 40% | 1015.5 hPa | 0 mm | - | - | - |
| 1777842410 | 15.56° C | 40% | 1015.6 hPa | 0 mm | - | - | - |
| 1777841808 | 15° C | 40% | 1015.5 hPa | 0 mm | - | - | - |
| 1777841207 | 15° C | 40% | 1015.5 hPa | 0 mm | - | - | - |
| 1777840609 | 15° C | 41% | 1015.7 hPa | 0 mm | - | - | - |
| 1777840063 | 15.56° C | 38% | 1015.9 hPa | 0 mm | - | - | - |
| 1777840008 | 15.56° C | 38% | 1015.9 hPa | 0 mm | - | - | - |
| 1777839408 | 15.56° C | 38% | 1015.9 hPa | 0 mm | - | - | - |
| 1777838849 | 15.56° C | 41% | 1016 hPa | 0 mm | - | - | - |
| 1777838810 | 15.56° C | 41% | 1016 hPa | 0 mm | - | - | - |
| 1777838208 | 15° C | 42% | 1016.3 hPa | 0 mm | - | - | - |
| 1777837607 | 15° C | 42% | 1016.3 hPa | 0 mm | - | - | - |
| 1777837011 | 15° C | 41% | 1016.7 hPa | 0 mm | - | - | - |
| 1777836488 | 15.56° C | 41% | 1016.7 hPa | 0 mm | - | - | - |
| 1777836407 | 15.56° C | 41% | 1016.7 hPa | 0 mm | - | - | - |
| 1777835807 | 15.56° C | 41% | 1016.7 hPa | 0 mm | - | - | - |
* Rain latest hour (hover to see other rain measurements)
** Current wind speed in m/s (hover to see current wind gust speed)